Lid_Strength_Index
0 -0 1 4 7 7 9 8 6 7 6 4 4 4 5 5 6 8 0 -0 -1 -1 -1 -1 -1 -1 -1 -1 -1 -1 -1 -1 -1 -1 -1 -1 -1 -1 -1 -1 -1 -1 -1 -1 -1 -1 -1 -1 -1
2 4 4 6 8 10 8 6 7 6 5 4 4 4 5 5 3 2 1 -0 -1 -1 -2 -2 -1 -1 -1 -1 -1 -1 -1 -1 -1 -1 -1 -1 -1 -1 -1 -1 -1 -1 -1 -1 -1 -1 -1 -1 -1
3 3 5 5 6 9 8 6 5 5 4 4 5 3 4 5 2 2 0 -0 -1 -1 -1 -2 -1 -1 -1 -1 -1 -1 -1 -1 -1 -1 -1 -1 -1 -1 -1 -1 -1 -1 -1 -1 -1 -1 -1 -1 -1
2 3 5 7 7 6 6 5 5 4 4 3 4 6 3 1 2 1 -0 -1 -0 -1 -1 -1 -1 -1 -1 -1 -1 -1 -1 -1 -1 -1 -1 -1 -1 -1 -1 -1 -1 -1 -1 -1 -1 -1 -1 -1 -1
2 4 6 7 7 5 4 4 4 5 4 4 3 5 5 2 0 0 -0 -0 -0 -0 -1 -1 -1 -1 -1 -1 -1 -1 -1 -1 -1 -1 -1 -1 -1 -1 -1 -1 -1 -1 -1 -1 -1 -1 -1 -1 -1
4 3 7 8 7 5 4 4 4 4 4 4 4 5 4 1 1 0 -0 -0 -1 -0 -1 -1 -1 -1 -1 -1 -1 -1 -1 -1 -1 -1 -1 -1 -1 -1 -1 -1 -1 -1 -1 -1 -1 -1 -1 -1 -1
4 5 7 7 7 6 5 3 4 4 4 4 3 6 4 2 1 0 -0 -1 -1 -1 -1 -1 -1 -1 -1 -1 -1 -1 -1 -1 -1 -1 -1 -1 -1 -1 -1 -1 -1 -1 -1 -1 -1 -1 -1 -1 -2
4 5 6 6 7 7 4 4 3 4 5 2 2 6 5 2 0 0 -0 -0 -0 -1 -1 -1 -1 -1 -1 -1 -1 -1 -1 -1 -1 -1 -1 -1 -1 -1 -2 -2 -2 -1 -1 -1 -1 -1 -1 -2 -2
3 6 7 7 7 6 4 4 3 3 4 4 3 3 2 1 0 1 1 1 0 0 -0 -1 -1 -1 -1 -1 -1 -1 -1 -1 -1 -1 -1 -1 -2 -2 -2 -2 -2 -1 -1 -1 -1 -2 -2 -2 -2
4 6 6 5 5 5 4 4 4 4 5 5 4 3 2 1 1 2 2 2 1 1 -0 -1 -1 -1 -1 -1 -1 -2 -1 -2 -2 -2 -2 -1 -2 -2 -2 -3 -2 -2 -1 -2 -2 -2 -2 -2 -1
4 6 4 4 4 4 4 4 3 5 6 5 5 4 2 2 2 2 1 1 1 0 0 -0 -1 -1 -1 -1 -1 -1 -1 -1 -2 -2 -2 -2 -1 -2 -1 -1 -1 -2 -1 -1 -1 -1 -1 -1 -1
5 4 4 4 4 4 5 4 5 5 5 3 3 2 2 2 2 2 2 1 1 1 0 -0 -1 -1 -1 -1 -1 -1 -1 -1 -1 -2 -2 -2 -1 -1 -1 -1 -1 -2 -1 -1 -1 -1 -1 -1 -1
5 4 4 4 4 4 4 5 5 5 3 3 2 2 3 2 2 2 1 1 1 1 0 0 -1 -1 -1 -1 -1 -1 -1 -1 -1 -2 -2 -2 -1 -1 -1 -1 -1 -1 -1 -1 -1 -1 -1 -1 -1
4 4 4 4 4 4 5 5 5 5 3 3 3 3 3 3 2 2 2 2 1 1 0 -0 -0 -1 -1 -1 -1 -1 -1 -1 -1 -1 -1 -2 -1 -1 -1 -1 -1 -1 -1 -1 -1 -1 -1 -0 -1
4 5 5 4 4 4 4 6 7 4 3 4 4 3 3 3 2 2 2 2 1 1 0 1 -0 -1 -1 -1 -1 -1 -1 -1 -1 -1 -2 -2 -2 -2 -1 -1 -1 -1 -1 -1 -1 -1 -1 -0 -0
5 5 7 5 4 4 4 7 6 4 4 5 4 4 3 3 2 2 1 1 1 0 1 -0 -0 -0 -0 -1 -1 -1 -1 -1 -1 -1 -1 -1 -1 -1 -1 -0 -0 -1 -1 -1 -0 -0 0 0 0
6 8 7 6 4 5 5 7 5 4 4 5 4 4 4 3 3 2 1 1 1 0 0 0 -0 -0 -0 -1 -1 -1 -1 -1 -1 -1 -1 -1 -1 -1 -1 -1 -1 -1 -1 -0 0 0 0 1 1
8 8 7 7 5 5 6 6 5 4 4 5 4 4 4 4 3 2 1 1 0 0 -0 -0 -0 -0 -1 -0 -0 -0 -1 -1 -1 -1 -1 -1 -1 -1 -1 -1 -1 -1 -0 -0 -0 0 0 0 1
6 7 7 6 5 6 6 6 6 5 5 5 5 4 4 4 2 2 1 1 1 0 0 -0 0 -0 -0 0 0 1 1 0 -0 -1 -1 -1 -1 -1 -1 -1 -1 -0 0 0 1 1 1 1 0
6 7 7 6 6 6 6 6 6 5 5 4 5 5 4 4 3 2 1 1 1 1 0 0 -0 -0 -1 -0 -0 -0 -1 -0 -1 -1 -2 -2 -2 -2 -1 -1 -0 -1 -0 -0 0 1 2 2 1
7 7 7 7 6 5 6 7 7 5 5 4 4 4 4 4 3 3 2 2 1 1 0 0 -0 -1 -1 -1 -1 -1 -1 -1 -0 -0 -0 -1 -2 -2 -2 -2 -1 -0 -1 0 -0 0 1 2 1
8 6 6 7 8 9 6 10 8 6 6 6 5 4 4 3 3 2 2 2 1 2 1 1 -0 -1 -1 -1 -1 -1 1 1 1 1 -0 -1 -2 -2 -2 -2 -1 -1 -0 -0 0 -0 0 1 2
7 5 6 6 7 8 8 9 7 6 8 6 5 4 4 3 3 3 2 2 2 2 0 -0 0 -0 -1 -1 -0 1 1 1 1 0 -1 -2 -2 -2 -1 -2 -2 -1 -1 -0 0 -0 0 0 1
5 6 6 6 7 10 8 9 9 7 7 6 5 4 4 3 3 2 2 2 2 0 0 0 0 0 0 -0 -0 -0 -0 -0 0 0 0 0 -0 -1 -2 -1 -2 -2 -1 -1 -1 -1 -0 -0 0
6 7 10 11 11 11 8 9 8 6 5 5 4 4 4 3 3 3 2 2 1 1 1 1 1 1 0 0 -0 -1 -1 -1 -0 -0 0 -0 1 0 -1 -2 -1 -1 -2 -2 -1 -1 -1 -0 0
7 7 10 13 12 11 8 10 8 5 5 4 4 3 3 3 3 2 3 2 2 1 2 1 1 0 0 -0 -0 -1 -1 -0 -0 -1 -0 -0 0 -0 -2 -2 -2 -1 -1 -1 -2 -1 -0 -1 -0
7 8 6 9 9 11 9 8 6 5 5 5 5 4 4 3 3 2 2 2 1 1 1 1 1 0 -0 -0 -0 -1 -1 -1 -0 -1 -1 -1 -1 -1 -1 -2 -1 -1 -1 -1 -1 -0 -0 -1 -0
6 5 9 9 13 14 10 10 9 8 6 6 5 5 4 3 3 2 2 2 1 1 1 1 0 0 -0 -0 -1 -0 -1 -1 -1 -1 -1 -1 -1 -1 -1 -1 -1 -1 -1 -1 -1 -1 -1 -1 -0
7 8 7 7 9 12 13 10 6 6 5 6 5 4 4 3 3 2 2 2 1 1 1 0 0 0 0 -0 -0 -0 -1 -1 -1 -1 -1 -1 -1 -1 -1 -1 -1 -1 -1 -1 -1 -1 -1 -0 -0
6 7 7 11 11 9 10 11 5 5 5 5 5 4 3 3 3 2 2 2 1 1 1 1 0 0 0 -0 -0 -0 -1 -1 -1 -1 -1 -1 -1 -1 -1 -1 -0 -0 -0 -1 -1 -0 -0 0 0